Flag for U.S.A. Weather past 2 weeks in St. Croix Falls, Wisconsin, U.S.A.

Now
73 °F

Sunny.


Feels Like: 76 °F
Forecast: 54 / 76 °F
Wind: 9 mph from West

Location: L O Simenstad Municipal Airport

Current Time: Jul 29, 2014 at 11:33:57 AM

Latest Report: Jul 29, 2014 at 11:15 AM


Visibility: 10 mi

Pressure: 30.14 "Hg

Humidity: 66%

Dew point: 62 °F

Location of St. Croix FallsLocation

Historic Weather in St. Croix Falls — Graph

°F

St. Croix Falls temperature yesterday

Maximum temperature yesterday: 75 °F (at 3:55 PM)
Minimum temperature yesterday: 57 °F (at 3:35 AM)
Average temperature yesterday: 65 °F

Past Weeks' High & Low Weather Summary

 TemperatureHumidityPressure
High88 °F (Jul 21, 2:55 PM)100% (Jul 16, 12:15 AM)30.29 "Hg (Jul 16, 12:15 AM)
Low46 °F (Jul 16, 4:55 AM)38% (Jul 16, 4:35 PM)29.78 "Hg (Jul 26, 5:55 PM)
Average69 °F75%30.01 "Hg
* Reported Jul 14 10:15 AM — Jul 29 10:15 AM, St. Croix Falls, Weather by CustomWeather, © 2014

Note: Actual official high and low records may vary slightly from our data, if they occured in-between our weather recording intervals... More about our weather records

Advertising

St. Croix Falls weather history for previous 24 hours

 ConditionsComfort  
Time TempWeatherWind HumidityBarometerVisibility
10:15 AM
Jul 29
71 °FSunny.7 mph73%30.14 "Hg10 mi
9:55 AM69 °FSunny.6 mph76%30.14 "Hg10 mi
9:35 AM67 °FSunny.6 mph80%30.15 "Hg10 mi
9:15 AM66 °FSunny.6 mph82%30.15 "Hg10 mi
8:55 AM65 °FSunny.3 mph87%30.16 "Hg10 mi
8:35 AM63 °FSunny.5 mph91%30.16 "Hg10 mi
8:15 AM62 °FSunny.3 mph96%30.16 "Hg10 mi
7:55 AM60 °FSunny.No wind100%30.15 "Hg10 mi
7:35 AM58 °FSunny.No wind100%30.15 "Hg10 mi
7:15 AM56 °FSunny.No wind100%30.15 "Hg10 mi
6:55 AM53 °FSunny.No wind100%30.15 "Hg10 mi
6:35 AM52 °FFog.No wind100%30.15 "Hg4 mi
6:15 AM53 °FFog.No wind100%30.14 "Hg4 mi
5:55 AM53 °FFog.No wind100%30.14 "Hg0 mi
5:35 AM53 °FFog.No wind100%30.14 "Hg0 mi
5:15 AM53 °FPassing clouds.No wind100%30.14 "Hg10 mi
4:55 AM53 °FClear.No wind100%30.14 "Hg10 mi
4:35 AM52 °FClear.No wind100%30.14 "Hg10 mi
4:15 AM54 °FClear.No wind100%30.14 "Hg10 mi
3:55 AM54 °FClear.No wind100%30.14 "Hg10 mi
3:35 AM53 °FClear.No wind100%30.14 "Hg10 mi
3:15 AM54 °FClear.No wind100%30.13 "Hg10 mi
2:55 AM54 °FClear.No wind100%30.14 "Hg10 mi
2:35 AM54 °FClear.No wind100%30.14 "Hg10 mi
2:15 AM55 °FPassing clouds.No wind100%30.14 "Hg10 mi
1:55 AM55 °FPassing clouds.No wind100%30.15 "Hg10 mi
1:35 AM55 °FClear.No wind100%30.15 "Hg10 mi
1:15 AM55 °FClear.No wind100%30.16 "Hg10 mi
12:55 AM56 °FClear.No wind97%30.16 "Hg10 mi
12:35 AM56 °FClear.No wind98%30.16 "Hg10 mi
12:15 AM57 °FClear.No wind99%30.16 "Hg10 mi
11:55 PM
Jul 28
57 °FClear.No wind99%30.15 "Hg10 mi
11:15 PM58 °FClear.No wind97%30.15 "Hg10 mi
10:55 PM58 °FClear.No wind97%30.16 "Hg10 mi
10:35 PM59 °FClear.3 mph97%30.16 "Hg10 mi
10:15 PM59 °FClear.No wind97%30.16 "Hg10 mi
9:55 PM59 °FClear.No wind97%30.16 "Hg10 mi
9:35 PM61 °FSunny.No wind91%30.15 "Hg10 mi
9:15 PM62 °FSunny.No wind83%30.15 "Hg10 mi
8:55 PM65 °FSunny.3 mph70%30.15 "Hg10 mi
8:15 PM69 °FSunny.No wind62%30.15 "Hg10 mi
7:55 PM70 °FSunny.No wind58%30.15 "Hg10 mi
7:35 PM71 °FSunny.3 mph56%30.15 "Hg10 mi
7:15 PM72 °FSunny.5 mph54%30.15 "Hg10 mi
6:55 PM73 °FSunny.5 mph49%30.16 "Hg10 mi
6:35 PM73 °FSunny.7 mph48%30.16 "Hg10 mi
6:15 PM74 °FSunny.8 mph49%30.16 "Hg10 mi
5:55 PM74 °FSunny.7 mph47%30.16 "Hg10 mi
5:15 PM72 °FPartly sunny.5 mph52%30.17 "Hg10 mi
3:55 PM75 °FScattered clouds.8 mph48%30.18 "Hg10 mi
3:35 PM74 °FScattered clouds.8 mph48%30.19 "Hg10 mi
3:15 PM73 °FScattered clouds.3 mph46%30.19 "Hg10 mi
2:55 PM74 °FBroken clouds.5 mph49%30.19 "Hg10 mi
2:35 PM72 °FBroken clouds.7 mph46%30.19 "Hg10 mi
2:15 PM72 °FMore clouds than sun.9 mph50%30.20 "Hg10 mi
1:55 PM72 °FBroken clouds.8 mph50%30.20 "Hg10 mi
1:35 PM72 °FPartly sunny.7 mph52%30.21 "Hg10 mi
1:15 PM71 °FPartly sunny.8 mph50%30.21 "Hg10 mi
12:55 PM71 °FBroken clouds.7 mph48%30.21 "Hg10 mi
12:15 PM70 °FBroken clouds.6 mph60%30.22 "Hg10 mi
11:55 AM70 °FPartly sunny.5 mph63%30.22 "Hg10 mi
11:35 AM69 °FOvercast.6 mph66%30.23 "Hg10 mi
11:15 AM68 °FOvercast.3 mph70%30.23 "Hg10 mi
Weather by CustomWeather, © 2014

See weather overviewHow to use our weather pages